DateTimeUTC,F1_A11,F1_S11,BsB_S11,BsG_S11,BsR_S11,BbsB_S11,BbsG_S11,BbsR_S11,BaB_A11,BaG_A11,BaR_A11,Tu_S11,T_S11,Uu_S11,U_S11,P_S11,T1_A11
2021-03-12T01:00:00Z,00000200,21000000,,,,,,,0000.07,-000.05,-000.01,16.8,24.5,,00.0,0637.7,30.9
2021-03-12T01:01:00Z,00000200,21000000,,,,,,,-000.31,-000.11,-000.13,16.8,24.5,,00.0,0637.7,30.9
2021-03-12T01:02:00Z,00000200,21000000,,,,,,,0000.73,0000.13,0000.64,16.8,24.5,,00.0,0637.7,31.0
2021-03-12T01:03:00Z,00000200,61000000,,,,,,,-000.02,0000.22,-000.11,16.8,24.6,,00.0,0637.7,30.9
2021-03-12T01:04:00Z,00000200,41000000,0000.57,0000.24,0000.19,0000.17,0000.10,0000.16,0000.41,-000.00,-000.11,17.1,24.4,,00.0,0638.6,30.9
2021-03-12T01:05:00Z,00000200,01000000,0001.24,0000.61,0000.08,-000.29,0000.33,-000.15,0000.11,0000.26,0000.06,17.1,24.3,,00.0,0638.6,30.9
2021-03-12T01:06:00Z,00000200,01000000,0000.50,0000.26,0000.12,0000.83,-000.02,-000.15,0000.18,0000.24,0000.34,17.1,24.3,,00.0,0638.6,30.9
2021-03-12T01:07:00Z,00000200,01000000,0001.21,0000.22,-000.07,0000.26,0000.09,0000.13,0000.03,0000.28,-000.07,17.0,24.3,,00.0,0638.6,30.9
2021-03-12T01:08:00Z,00000200,01000000,0001.43,0000.38,0000.25,0000.24,0000.22,0000.15,0000.15,0000.12,0000.16,17.0,24.2,,00.0,0638.7,30.9
2021-03-12T01:09:00Z,00000200,01000000,0001.19,0000.53,-000.04,-000.07,0000.12,0000.16,0000.31,-000.17,0000.43,16.9,24.2,,00.0,0638.7,30.9
2021-03-12T01:10:00Z,00000200,01000000,0000.81,0000.30,0000.25,-000.27,0000.33,0000.09,0000.20,0000.32,-000.06,16.8,24.2,,00.0,0638.6,30.9
2021-03-12T01:11:00Z,00000200,01000000,0000.37,0000.43,0000.17,0000.14,0000.30,-000.19,0000.13,0000.19,-000.20,16.8,24.1,,00.0,0638.6,30.9
2021-03-12T01:12:00Z,00000200,01000000,0001.14,0000.41,0000.38,0000.21,0000.37,0000.37,0000.15,0000.04,0000.27,16.7,24.1,,00.0,0638.6,30.8
2021-03-12T01:13:00Z,00000200,01000000,0000.51,0000.56,0000.05,-000.09,-000.01,0000.13,0000.14,0000.30,0000.44,16.7,24.1,,00.0,0638.6,30.9
2021-03-12T01:14:00Z,00000200,01000000,0001.19,0000.61,0000.24,0000.37,0000.10,0000.25,0000.51,-000.10,0000.18,16.8,24.0,,00.0,0638.6,30.9
2021-03-12T01:15:00Z,00000200,01000000,0000.75,0000.52,0000.15,-000.31,0000.26,0000.14,-000.39,0000.21,-000.26,16.9,24.1,,00.0,0638.6,30.9
2021-03-12T01:16:00Z,00000200,01000000,0000.91,0000.40,0000.09,0000.61,0000.15,0000.10,0000.77,0000.47,0000.55,17.0,24.1,,00.0,0638.6,30.9
2021-03-12T01:17:00Z,00000200,01000000,0000.73,0000.46,0000.17,0000.23,0000.32,0000.31,-000.14,0000.52,0000.02,17.1,24.2,,00.0,0638.6,30.9
2021-03-12T01:18:00Z,00000200,01010000,0000.84,0000.54,0000.21,0000.23,0000.35,0000.06,0000.27,-000.40,0000.28,17.1,24.2,,00.0,0638.6,30.9
2021-03-12T01:19:00Z,00000200,01000000,0001.36,0000.34,0000.15,0000.12,0000.43,-000.07,0000.34,0000.62,-000.02,17.2,24.2,,00.0,0638.6,30.9
2021-03-12T01:20:00Z,00000200,01000000,0000.67,0000.69,0000.29,-000.08,0000.22,0000.18,0000.25,0000.23,0000.41,17.2,24.2,,00.0,0638.6,30.9
2021-03-12T01:21:00Z,00000200,01000000,0000.52,0000.45,0000.26,0000.80,0000.03,0000.06,0000.22,0000.20,-000.06,17.2,24.2,,00.0,0638.5,30.9
2021-03-12T01:22:00Z,00000200,01000000,0001.25,0000.59,-000.17,0000.32,0000.31,-000.06,0000.28,0000.03,0000.06,17.2,24.2,,00.0,0638.5,30.9
2021-03-12T01:23:00Z,00000200,01000000,0000.94,0000.92,0000.11,-000.12,0000.14,0000.08,-000.07,0000.43,0000.22,17.1,24.2,,00.0,0638.5,30.9
2021-03-12T01:24:00Z,00000200,01000000,0000.44,0000.67,0000.10,0000.33,0000.11,0000.13,0000.85,0000.17,0000.34,17.0,24.2,,00.0,0638.5,30.9
2021-03-12T01:25:00Z,00000200,01000000,0000.38,0000.68,0000.36,0000.03,0000.22,0000.01,0000.43,0000.48,0000.48,17.0,24.2,,00.0,0638.5,30.9
2021-03-12T01:26:00Z,00000200,01000000,0000.69,0000.49,0000.42,0000.06,0000.26,0000.11,0000.35,0000.30,-000.07,16.9,24.1,,00.0,0638.5,30.9
2021-03-12T01:27:00Z,00000200,01000000,0000.83,0000.56,0000.35,0000.25,0000.03,0000.17,0000.08,0000.09,0000.21,16.9,24.1,,00.0,0638.5,30.9
2021-03-12T01:28:00Z,00000200,01000000,0001.25,0000.43,0000.22,0000.26,0000.15,0000.06,0000.42,0000.51,0000.41,16.9,24.0,,00.0,0638.5,30.9
2021-03-12T01:29:00Z,00000200,01000000,0000.92,0000.76,0000.23,0000.12,-000.01,-000.05,0000.36,0000.25,0000.05,16.9,24.1,,00.0,0638.5,30.9
2021-03-12T01:30:00Z,00000200,01000000,0000.89,0000.38,0000.10,0000.19,0000.26,-000.11,-000.41,-000.08,-000.06,17.0,24.1,,00.0,0638.5,30.9
2021-03-12T01:31:00Z,00000200,01000000,0000.61,0000.80,0000.48,0000.22,0000.05,-000.06,0000.51,0000.21,0000.39,17.1,24.1,,00.0,0638.5,30.9
2021-03-12T01:32:00Z,00000200,01000000,0000.42,0000.65,0000.19,0000.10,0000.35,-000.16,0000.00,0000.40,0000.54,17.2,24.2,,00.0,0638.5,31.0
2021-03-12T01:33:00Z,00000200,01000000,0000.65,0000.47,0000.47,0000.03,0000.36,-000.10,0000.62,0000.41,-000.09,17.2,24.2,,00.0,0638.5,30.9
2021-03-12T01:34:00Z,00000200,01000000,0001.06,0000.67,0000.25,0000.03,0000.36,0000.01,0000.10,0000.06,0000.29,17.3,24.2,,00.0,0638.5,31.0
2021-03-12T01:35:00Z,00000200,01000000,0000.75,0000.70,0000.07,0000.45,0000.10,0000.01,0000.71,0000.24,0000.01,17.3,24.2,,00.0,0638.5,31.0
2021-03-12T01:36:00Z,00000200,01000000,0001.39,0000.33,0000.01,0000.17,0000.01,-000.01,0000.03,0000.41,0000.56,17.4,24.3,,00.0,0638.5,31.0
2021-03-12T01:37:00Z,00000200,01000000,0001.13,0000.70,0000.18,-000.07,0000.39,-000.05,0000.22,0000.10,0000.21,17.4,24.3,,00.0,0638.5,31.0
2021-03-12T01:38:00Z,00000200,01000000,0001.18,0000.80,0000.15,0000.67,0000.17,-000.12,0000.85,0000.99,0000.35,17.5,24.4,,00.0,0638.5,31.0
2021-03-12T01:39:00Z,00000200,01000000,0001.32,0000.48,0000.28,0000.12,-000.02,0000.05,0000.61,0000.42,0000.22,17.5,24.4,,00.0,0638.5,30.9
2021-03-12T01:40:00Z,00000200,01000000,0000.74,0000.72,0000.29,0000.12,-000.01,-000.04,-000.03,0000.13,0000.04,17.4,24.3,,00.0,0638.5,30.9
2021-03-12T01:41:00Z,00000200,01000000,0001.12,0000.17,0000.40,0000.65,0000.17,0000.12,0000.16,-000.11,0000.05,17.3,24.3,,00.0,0638.5,30.9
2021-03-12T01:42:00Z,00000200,01000000,0001.05,0000.72,0000.04,0000.41,0000.27,-000.19,0000.38,0000.30,0000.43,17.3,24.3,,00.0,0638.5,30.9
2021-03-12T01:43:00Z,00000200,01000000,0001.63,0000.50,0000.26,0000.21,0000.01,0000.21,0000.29,0000.61,-000.03,17.3,24.3,,00.0,0638.5,30.9
2021-03-12T01:44:00Z,00000200,01000000,0001.09,0000.38,0000.29,0000.19,0000.25,0000.30,0000.12,-000.13,0000.42,17.3,24.3,,00.0,0638.5,30.9
2021-03-12T01:45:00Z,00000200,01000000,0001.23,0000.93,0000.31,0000.34,0000.23,0000.02,0000.62,0000.45,0000.16,17.4,24.3,,00.0,0638.5,30.9
2021-03-12T01:46:00Z,00000200,01000000,0001.21,0000.71,0000.20,0000.16,0000.16,0000.17,0000.33,0000.26,-000.06,17.4,24.3,,00.0,0638.5,30.9
2021-03-12T01:47:00Z,00000200,01000000,0001.42,0000.59,0000.15,-000.01,0000.26,0000.16,0000.32,0000.27,0000.54,17.4,24.3,,00.0,0638.4,30.9
2021-03-12T01:48:00Z,00000200,01000000,0001.30,0000.62,0000.15,0000.36,0000.17,-000.09,0000.05,0000.34,0000.07,17.4,24.3,,00.0,0638.4,30.9
2021-03-12T01:49:00Z,00000200,01000000,0001.28,0000.60,0000.07,0000.48,0000.26,-000.11,0000.29,-000.04,0000.34,17.4,24.3,,00.0,0638.4,30.9
2021-03-12T01:50:00Z,00000200,01000000,0001.25,0000.59,0000.19,-000.08,0000.14,0000.01,0000.42,0000.45,-000.07,17.3,24.3,,00.0,0638.5,30.9
2021-03-12T01:51:00Z,00000200,01000000,0000.67,0000.80,0000.34,0000.23,0000.16,0000.12,0000.25,0000.16,0000.16,17.2,24.3,,00.0,0638.5,30.9
2021-03-12T01:52:00Z,00000200,01000000,0000.94,0000.35,0000.37,0000.46,0000.30,-000.12,0000.22,0000.25,0000.29,17.2,24.2,,00.0,0638.5,30.9
2021-03-12T01:53:00Z,00000200,01000000,0001.37,0000.72,0000.43,0000.78,0000.19,-000.03,0000.42,0000.19,0000.05,17.1,24.2,,00.0,0638.4,30.9
2021-03-12T01:54:00Z,00000200,01000000,0001.53,0001.09,0000.32,-000.08,0000.17,-000.18,0000.38,0000.45,0000.30,17.0,24.2,,00.0,0638.4,30.9
2021-03-12T01:55:00Z,00000200,01000000,0001.23,0000.85,0000.52,-000.21,0000.35,0000.07,0000.70,0000.53,0000.41,17.0,24.1,,00.0,0638.4,30.9
2021-03-12T01:56:00Z,00000200,01000000,0000.90,0000.93,0000.20,0000.03,0000.08,-000.11,0000.46,0000.51,0000.53,17.0,24.1,,00.0,0638.4,30.9
2021-03-12T01:57:00Z,00000200,41000000,,,,,,,-000.07,-000.09,0000.37,17.0,24.2,,00.0,0638.4,30.9
2021-03-12T01:58:00Z,00000200,61000000,,,,,,,0000.50,0000.30,-000.05,16.6,24.3,,00.0,0637.4,30.9
2021-03-12T01:59:00Z,00000200,21000000,,,,,,,-000.28,0000.45,0000.07,16.6,24.4,,00.0,0637.4,30.9
